DELTA 1 DEB, 8539

Orbit data source: Space-Track

DELTA 1 DEB, 8539 is space debris in SSO originally from a launch on Sun, 23 Jul 1972 UTC launched from the Air Force Western Test Range (AFWTR). Debris objects in space refer to the collection of defunct objects orbiting the Earth. Examples of debris include non-operational satellites, rocket bodies, and fragments generated from explosions, collisions, or faulty payload assembly.

Loading next visibility...
Identifier
8539, 1972-058GN
Orbit
SSO
Country
Flag of USUS
Related business
Manufacturer
Unknown
Mission
Spacecraft
Bus & Motor
Unknown
Mass
Unknown
Launch date (UTC)
1972-07-23 (53 years ago)
Launch vehicle
Unknown
Launch site
Air Force Western Test Range (AFWTR)
Object type
Payload
Rocket body
Debris
Shape & HBR
Unknown shape, 0.1 m
Radar Cross Section
Small (<0.1 m²)

Expand to show TLE details & history
Last TLE update: 21 hours ago

TLE from 21 hours ago
0 DELTA 1 DEB
1 08539U 72058GN  25340.62970212  .00001631  00000-0  61729-3 0  9999
2 08539  97.2823  27.1950 0200224 159.1778 201.7707 14.21726296727224
Epoch: 2025-12-06T15:06Z
TLE epoch observation values (Epoch: 2025-12-06T15:06:46.263Z)
Latitude
-0.00005°
Longitude
84.84755°
Altitude
956.731 km
Speed
7.304 km/s
True Right ascension
01h 48m 46s
True Declination
0° 00' 00"
Sunlit
Object was in full shadow at epoch
Visualization orbit readout
Latitude
Unknown
Longitude
Unknown
Altitude
Unknown
Speed
Unknown
Apparent Right ascension
Unknown
Apparent Declination
Unknown
Sunlit
N/A
Visualization observer readout
Local Sidereal Time
09:45:49
Azimuth
Unknown
Elevation
Unknown
Doppler factor
Unknown
Orbital elements
Apogee altitude
960.668 km
Perigee altitude
672.556 km
Semi-major axis
7,194.749 km
Eccentricity
0.02002
Inclination
97.2823°
RAAN
27.195°
Arg. of periapsis
159.1778°
True anomaly
200.9391°
Mean anomaly
201.7707°
Eccentric anomaly
201.35299°
Mean motion
3.55647 °/min
Orbital period
101.22 mins
BSTAR
0.00061729
Loading maneuver chart data...
Computing Atmospheric mass density...
Loading historical data...
Loading historical data...
Loading historical data...
Loading historical data...
Loading historical data...
Loading historical data...
Loading historical data...

Documentation

Showing up to 5 results
|